TIANMU-1 12

Last updated on Sun Oct 06 2024 00:02:18 GMT+0000 (Coordinated Universal Time)

1 58646U 23205B 24279.49476766 .00017757 00000+0 89621-3 0 9999 2 58646 97.3955 301.7572 0009633 27.3545 332.8194 15.17128422 43214
UTC large
Height (km)
Speed (km/s)
/
Latitude / Longitude
Inclination (degrees)
Orbital Period (minutes)
Azimuth
Elevation
Range (km)
Doppler Factor

Next 0 passes for location: London (51.5072 / 0.1276)

Sorry there are no passes over London.